[討論] 什麼車剛開始看很醜但越看越好看

看板 Car
作者
時間
留言 200則留言,177人參與討論
推噓 143  ( 145推 2噓 53→ )
如題 往往大小改款車型發表時 審美觀很難一致獲得消費者青睞 有沒有什麼車型是剛開始覺得很醜 但是後來越看越好看的? --
※ 發信站: 批踢踢實業坊(ptt.cc), 來自: 39.12.196.216 (臺灣) ※ 文章網址: https://www.ptt.cc/bbs/car/M.1604075109.A.049.html
1Figreensheep: 近期應該就是新世代水箱罩的寶馬吧 10/31 00:26
2Figreensheep: https://i.imgur.com/3JHjIi7.jpg 10/31 00:27
3Fsankyumirai3: 中華得利卡 10/31 00:28
4Fbenedict76: prius 4 10/31 00:32
5Feddisontw: 以前馬自達五 出來的時候屁股覺得超醜 看久就習慣了 10/31 00:33
6Fdeffejfr: p4 10/31 00:33
7Fsjclivelo: 瑞獅 10/31 00:34
8FLiamTiger: 納智捷 10/31 00:34
9Fwa88: Toyota Alphard 10/31 00:34
10FTClover: 新世代CLS 10/31 00:34
11FEEERRIICC: c-hr 10/31 00:35
12FXXXXBANG: Mazda 3剛看像滑鼠 後來覺得不輸Ferrari GTC4lusso 10/31 00:35
13Fss87316: es 10/31 00:37
14Ffr92: Lexus 的大嘴巴 10/31 00:37
15Fkomcmc: 新馬三四門 小改一點外型 我覺得超帥 有點跑車風0.. 10/31 00:38
16Fesienhour: 垃圾車 10/31 00:42
17Fhanasiro: 個人覺得Volvo s90 照片真的不怎樣 實車倒是很好看 10/31 00:43
18Fhanasiro: 尤其尾燈 10/31 00:43
19Fcheetahspeed: bugatti la voiture noire 10/31 00:45
20Fgodplayboy: Bmw e60 發表大概十年之後越看越美 10/31 00:45
21Ffrentzenlee: C5A 一開始看照片笨笨的 實車不錯 VW Polo Rl也是 10/31 00:46
22Ffrentzenlee: 實車覺得比Golf好看 10/31 00:46
23Fwa88: S90分散式尾燈從照片看醜醜的 實際上路倒挺有貴氣. 10/31 00:46
24FDORAQMON: 吸嗯塔 越看越難看 10/31 00:49
25Fjersam89: 4系列怎麼看怎麼醜... 10/31 00:49
26Fvespar: Yaris crossover 越看越母湯 10/31 00:54
27Fhenryrita: 小改E 10/31 00:55
28Fv550237: E60 10/31 00:59
29Fdavid7112123: 現代Elentra 10/31 01:00
30FTonyAsa: 新馬3吧 照片很醜 實車好看 10/31 01:00
31Fsanshin: 新Bmw還是很難看 哪來好看 10/31 01:00
32FMysex: TOYOTA Camry GOA 10/31 01:06
33Fckgc2002: 垃圾車,看久了都想買一台 10/31 01:08
34FKasmirLo: 絕命毒師的車Pontiac Aztec 常被拿來說是世上最醜的 10/31 01:12
35FKasmirLo: 車之一 但多看幾眼覺得還好 至少很有性格 10/31 01:12
36Fvanson37: sienta 10/31 01:12
37Fkatzlee: 吸煙塔 10/31 01:13
38Fisohera: Sienta 越看越好看 10/31 01:14
39FSRJ: prius4 10/31 01:16
40Fshuuptt: Sienta 10/31 01:16
41FPaulOneil1: Lexus的新車頭 10/31 01:16
42Fa456618: 絕對不是一樓那台 醜死 10/31 01:20
43Fgp03dan: Juke 10/31 01:23
44Fgeorgelkk: 大家文 model3吧 10/31 01:24
45FAZBTPATONY: RAV4的頭 10/31 01:29
46Ftyantmf: Prius 跟 Camry吧 越來越覺得他們很美 10/31 01:34
47Fplaaaaa00142: golf以前看不懂 10/31 01:46
48Fwplinwp: sienta 10/31 01:51
49Fduodenum: Pt cruiser 10/31 01:53
50Fjtrdavid371: Lexus的腎 10/31 01:56
51Fchewthelife8: 我是覺得吸菸塔本來就母湯 越看越母湯xd 10/31 01:58
52Fchewthelife8: S90的屁屁實車看很美 10/31 02:01
53Fa7904232000: sienta好看....?無言 10/31 02:02
54FLutoucar: 69野馬 10/31 02:07
55Falex40214: golf 10/31 02:07
56Fpurplebfly: 好看的第一眼就好看了,不會有看久了變好看的情況 10/31 02:14
57Fab15963qw: 勁戰 10/31 02:32
58FMbappe10: 認真CHR 10/31 02:33
59Flovefriend: sienta覺得越看越母湯+1 10/31 02:36
60Fasd7368741: 我反而是RAV4越看越醜 是不是視覺疲勞 10/31 02:41
61Fa58805082: 新鴨鴨,比想像中的好看 10/31 02:53
62Fyichi24: 特斯拉 10/31 02:57
63Fakiky: juke 10/31 03:50
64Fgluccvidog: 寶馬醜到想撞下去= = 10/31 04:03
65Fs6525480: 溜連車 10/31 04:14
66Fbang59487: 馬3五門 10/31 04:24
67Fissac: Civic 8 10/31 05:27
68Famou1030: corolla sport 10/31 05:36
69Fwillwillwill: 德國雙B系列都是 尤其是E60E61 越老越美 10/31 05:53
70Fdearjohn: 不就是sienta,銷量還沒出來前被嫌成啥,銷量一出後 10/31 06:01
71Fguianyinma: BMW大鼻孔 10/31 06:01
72Fdearjohn: 各個都啞巴吃黃連。 10/31 06:01
73Fdhtsai: Xsara,一隻反過來的青蛙 10/31 06:27
74Fsjerrysss: E60 +1 10/31 06:51
75Familkamilk: XC40 10/31 06:57
76Fhankknah: BMW怎麼看怎麼醜 10/31 07:34
77Faz400570437: 阿法 10/31 07:37
78Fsa0128: Q50 10/31 07:42
79Fvisitor211: 新車 10/31 07:44
80FErnestKou: Civic 9 10/31 07:46
81FTerran06: 一代勁戰啊! 10/31 08:00
82Fvul3qup3: 獅子吧 10/31 08:04
83Fvic4807: 207 10/31 08:08
84Fmp60707: 4系列 放上車牌好看很多 沒車牌那鼻孔真的超醜 10/31 08:22
85Fbagamanslim: P4 10/31 08:25
86FNiceAltec: prius4 10/31 08:26
87FCHRCHR: g22 10/31 08:30
88FCar1osCorrea: Urchin福祉車,等你老了看到都會流眼淚 10/31 08:31
89FCar1osCorrea: Urx 10/31 08:31
90Fniko0202: 吸菸塔吧 CC出來後 覺得它還真好看 10/31 08:32
91FRocker5566: 初代nsx 10/31 08:40
92Fchihsiao: 你可以找個醜女當老婆,牽手一輩子後就會變得超正 10/31 08:40
93Fywc1199: Juke吧 10/31 08:42
94Foceaninsky: Audi最早的大水箱護罩 10/31 09:00
95FSA01: audi avant 10/31 09:00
96Fleo215412: juke 剛開始看很醜 越看越覺得幹你娘醜爆 10/31 09:00
97Fstylish500: Juke越看越醜 10/31 09:08
98Fwheat1130: P4根本還是醜,而且本來好看的屁股還改醜了。 10/31 09:13
99Fj300521: Tiguan 10/31 09:23
100Fjoe51408: URX,看久了才覺得好像沒那麼難看XDD 10/31 09:27
101FNCCUWETSLIP: slk r171 車頭一開始覺得無法接受 10/31 09:27
102FNCCUWETSLIP: 結果現在我也開r171了 10/31 09:28
103FGunslinger: 這明顯就是要釣M3/M4廚 10/31 09:29
104FPellaeon: w211 10/31 09:30
105Fbeepuffer: 美醜的第一印象才是正確的,後來只是習慣而已。 10/31 09:38
106FsizeLarge: GLB 10/31 09:51
107Fagt705496: 日蝕 10/31 09:56
108Falanlight: Sienta真心醜,但是小朋友愛 10/31 09:58
109FGusteau: 馬自達的車剛出來時不太習慣 愈看愈像toyota 10/31 09:59
110Fsmartjim: w203 10/31 10:03
111Fc12005359: G22 10/31 10:09
112Fzzz41432: bmw 4 10/31 10:10
113Fgazelle74: 超大鼻孔不管看起次,都非常難看 10/31 10:12
114FShitHappens: 小改7 10/31 10:12
115Fswatch44: juke史上最醜沒有之一 sienta好歹是台車 10/31 10:13
116Fmike5312: TESLA 全系列 10/31 10:19
117FAsicsman: Lexus的車型 10/31 10:21
118FLexusNo1: bmw大鼻孔如果mark不是掛bmw早被酸爛了,還好看咧。 10/31 10:27
119FLexusNo1: 果然是價錢跟信仰決定美醜。 10/31 10:27
120FG4SR: venue車頭超醜 10/31 10:36
121Fsetopbox: 看久緣就浮起來 10/31 10:38
122Fkeyboyno1: C300 10/31 10:41
123FCWEBBE: 寶馬4系 10/31 10:46
124FIAMAZI: 電子花車 10/31 10:55
125Fazurezeiss: BMW E60加一!ps. E38自始就是美車 10/31 11:07
126FMulsanne: 7.5 camry 10/31 11:21
127Fnwojessy: yeti 10/31 11:31
128Fdavidlin99: NXT 10/31 11:55
129Fwhyen23: Volvo V60車尾越看越帥 10/31 12:28
130FmimiIce: 改款b200跟wagon車型 10/31 12:33
131Fcute54baby: Juke啊一隻大青蛙 10/31 12:35
132Fenthusiastic: BMW換成頭又大商標還會有多少人說好看 10/31 12:52
133FMUMUKON: 首推新大七 10/31 12:56
134FMUMUKON: 越看越醜 IS 10/31 12:58
135Fforv: Volvo FH540,越看越帥 10/31 13:10
136Fk7202001: 勞斯萊斯全系列 10/31 13:33
137Fburgerchi: 日蝕 10/31 13:36
138FCathay: 古早的Lancia,一開始覺得很土,後來知道拉力連續奪冠 10/31 13:38
139FCathay: 就覺得超帥 10/31 13:38
140Fsgds: 4代CRV 10/31 13:57
141Ftamchun001: Juke剛看醜 但看越久越看越醜XD 10/31 14:06
142Fgazelle74: 米漿四系列大鼻孔絕對是史上最難看的車子,沒有之一 10/31 14:11
143Fgazelle74: 設計師腦袋被馬桶蓋夾到 10/31 14:12
144Fcychung: P4 10/31 14:18
145FBlack8910: https://0rz.tw/Sfd4u 想了一下Stinger應該算是了吧 10/31 14:18
146FBlack8910: 實際上還蠻好看的 @@ 10/31 14:18
147Fgeniusw: 舊p4 10/31 14:27
148Fgeniusw: stinger不同意啊 一直都超帥 哪有醜 10/31 14:29
149Fgoodsnk: 福特4d 10/31 14:29
150Ferazer: 馬三像滑鼠 XDDDDD 10/31 14:33
151Fzie0730: 脫臼的凌志 10/31 14:40
152Ffred0755: 有越看越好笑的嗎 那一定是滑鼠 10/31 14:42
153FGOPOL: 4代五門馬三 一開始覺得很醜 好像滑鼠 後來覺得好看 10/31 14:44
154Fs155650: 日蝕一開始看還真的醜,久了還覺得真有特色 10/31 14:50
155Falbert9723: Toyota RAV4 10/31 14:57
156Fcolewa: Prius 4一票 10/31 15:22
157Fhaircell: prius4 10/31 15:38
158Fwho5566: KIA的頭 10/31 15:41
159Fwho5566: 還有日本的K CAR SUZUKI HUSTLER 10/31 15:42
160Fwho5566: 最近看到久了Yeti也是 10/31 15:46
161FWolff: Supra, 看久就手滑了 10/31 15:49
162Fpyhsi: P4 10/31 16:53
163Fa58805082: 滑暑馬3很可愛啊 一眼就喜歡 只是CP值有更好的選擇 10/31 17:04
164Fboommipun: RAV4 最近越來越潮 10/31 17:19
165Flspss93161: BMW 4 series 去看YT實車拍攝 其實不醜 10/31 17:28
166Fs8452813: 新馬三 五門的 一開始覺得超醜 現在覺得很好看哈哈 10/31 18:38
167FBlueNokia: W210 10/31 18:42
168FMulsanne: CAMRY 7.5代 剛出來覺得根本VIOS 結果實車很霸氣 10/31 19:27
169FGucci007: 酸民開的都很醜 10/31 19:31
170Fjasonis08: 什麼車我不知道,但我知道凌志NO1這ID越看越蠢 10/31 19:39
171Frebai: Sienta像卡通造型 10/31 19:40
172Fcuteneo: Prius 4認真?! 那車尾真的醜到一個境界 10/31 20:54
173Fkingdomsss: sienta好看????????? 10/31 21:27
174Fhenry0322: 我的馬呀 原來這麼好看 10/31 21:28
175Feulbos: IGNIS屁股呀 10/31 21:32
176FCORSA: SIRNTA的蘋果綠很慘烈 但鐵灰色 黑色就好看許多 10/31 22:46
177Fjack10363: UX系列本來覺得很醜 尤其屁股部分 但看久了其實也 10/31 22:52
178Fjack10363: 算特色之一 10/31 22:53
179Fyujin: BMW新4系列九成帥爆 但那鼻孔真的會軟屌 10/31 23:06
180Fnewoa: 買不起的剛開始看很醜,買的起的越看越好看 10/31 23:09
181Fjackhuhu: Prius 4 舊款 +1 10/31 23:22
182Fweiojo3: 五代三門喜美k6,以前覺得屁股很醜,現在覺得很有 10/31 23:44
183Fweiojo3: 特色 10/31 23:45
184Fgrana: BMW,越看越帥 10/31 23:49
185Fjohn0302: 扣普拉斯 11/01 00:29
186Fatx1100: 我太太 11/01 00:34
187Fcar88929: 新馬三 11/01 03:20
188Fganjuro: juke那個車頭真的失敗 11/01 08:26
189Fhcshin: Prius和Sienta在日本銷售都是前幾名的,足以了解日 11/01 09:55
190Fhcshin: 本人的審美觀落後台灣人太多 11/01 09:55
191FBoasoul: 馬自達的車都變越醜 哪來的變好看? 11/01 10:43
192Fjack0216: Nike 11/01 12:47
193Ffreezee: V60 11/01 14:15
194Fgreenday0827: tiida的領帶看久還不錯,Yaris反過來覺得越看越不行 11/01 15:45
195Fck517: Prius 4 11/01 21:11
196Fwryyyyyyyyyy: 滑鼠車 11/02 01:40
197FJayferrari: BENZ G系列吧!讀書時覺得是誰會花錢去買這種車..... 11/02 02:29
198Fko234488: Seinta 醜死了 11/02 02:58
199Fgooff: 馬三,滑鼠車越看越時尚,很妙的感覺 11/02 10:09
200FAubameyang: SIENTA好看?? 11/02 13:06

car 最新熱門文章

28 [菜單] lancer驚嘆型
35 car 2020-11-25 21:57
71 [分享] 路上遭遇Blind Attack!
84 car 2020-11-25 20:55
59 [問題] VW T-Roc 還是 Peugeot 2008
124 car 2020-11-25 15:56
21 [討論] Audi A5 2021年式
28 car 2020-11-25 14:36
53 [分享] 特斯拉車頂又飛了!
95 car 2020-11-25 13:41
23 [問題] A6 V.S A4 中古車
44 car 2020-11-25 12:27
34 [問車] POLO車王想換通勤車
77 car 2020-11-25 12:16
26 [菜單] 2021 CRV VTIS
53 car 2020-11-25 12:10
22 [菜單] Ford KUGA 180旗艦
42 car 2020-11-25 11:56
26 [問題] 與ps4s csc6同級的選擇
39 car 2020-11-25 09:57
24 [問題] 車輛外觀的清潔維護
78 car 2020-11-25 09:14
18 [問車] 台灣何時要來這台
30 car 2020-11-25 02:41